This demonstration page uses our WeatherBlox Daily Observations layout. Learn more.

Hourly Observations for October 18, 2019

Temp ( °F °C ) Dew Point ( °F °C ) Humidity (%) Winds ( mph kmh ) Pressure ( in mb ) Visibility ( mi km ) Precip ( " mm )
12:15 am 00:15 Clear 59 14.8 39 3.8 48 48 SSE 9 15 29.59 1002 10 16.09344 0 0
12:35 am 00:35 Clear 58 14.4 39 3.7 49 49 SSE 13 20 29.59 1002 10 16.09344 0 0
12:55 am 00:55 Clear 57 13.8 39 3.7 51 51 SSE 13 20 29.56 1001 10 16.09344 0 0
1:15 am 01:15 Clear 56 13.6 39 3.7 51 51 SSE 10 17 29.56 1001 10 16.09344 0 0
1:35 am 01:35 Clear 56 13.5 38 3.6 51 51 SSE 12 19 29.56 1001 10 16.09344 0 0
1:55 am 01:55 Clear 56 13.2 38 3.5 52 52 SSE 14 22 29.56 1001 10 16.09344 0 0
2:15 am 02:15 Clear 55 13 38 3.3 52 52 SSE 12 19 29.56 1001 10 16.09344 0 0
2:35 am 02:35 Clear 55 12.5 38 3.3 54 54 SSE 13 20 29.56 1001 10 16.09344 0 0
2:55 am 02:55 Clear 54 12.1 38 3.2 55 55 SSE 13 20 29.53 1000 10 16.09344 0 0
3:15 am 03:15 Clear 53 11.7 37 3 55 55 SE 12 19 29.56 1001 10 16.09344 0 0
3:35 am 03:35 Clear 53 11.8 37 2.7 54 54 SSE 13 20 29.53 1000 10 16.09344 0 0
3:55 am 03:55 Clear 55 13 37 2.5 49 49 SSE 13 20 29.5 999 10 16.09344 0 0
4:15 am 04:15 Clear 56 13.1 36 2 47 47 SSE 15 24 29.5 999 10 16.09344 0 0
4:35 am 04:35 Clear 55 12.6 35 1.7 48 48 SSE 16 26 29.47 998 10 16.09344 0 0
4:55 am 04:55 Clear 54 12.1 35 1.5 49 49 SSE 15 24 29.47 998 10 16.09344 0 0
5:15 am 05:15 Clear 54 12.2 35 1.5 48 48 S 15 24 29.47 998 10 16.09344 0 0
5:35 am 05:35 Clear 54 12.4 35 1.5 48 48 S 10 17 29.47 998 10 16.09344 0 0
5:55 am 05:55 Clear 54 12 35 1.7 50 50 SSE 12 19 29.47 998 10 16.09344 0 0
6:15 am 06:15 Clear 54 12 36 2 51 51 S 10 17 29.47 998 10 16.09344 0 0
6:35 am 06:35 Clear 53 11.8 36 2.1 52 52 SSE 10 17 29.44 997 10 16.09344 0 0
6:55 am 06:55 Clear 52 11 36 2.2 55 55 S 10 17 29.44 997 10 16.09344 0 0
7:15 am 07:15 Clear 52 11 36 2.3 55 55 S 12 19 29.44 997 10 16.09344 0 0
7:35 am 07:35 Clear 51 10.8 37 2.5 57 57 S 13 20 29.47 998 10 16.09344 0 0
7:55 am 07:55 Sunny 51 10.7 37 2.7 58 58 S 13 20 29.47 998 10 16.09344 0 0
8:15 am 08:15 Sunny 51 10.8 37 3 59 59 S 12 19 29.47 998 10 16.09344 0 0
8:35 am 08:35 Sunny 52 11.3 38 3.5 59 59 S 14 22 29.44 997 10 16.09344 0 0
8:55 am 08:55 Sunny 54 12.1 39 3.9 58 58 S 15 24 29.44 997 10 16.09344 0 0
9:15 am 09:15 Sunny 56 13.1 40 4.5 56 56 S 16 26 29.41 996 10 16.09344 0 0
9:35 am 09:35 Sunny 58 14.4 41 5.1 54 54 S 14 22 29.38 995 10 16.09344 0 0
9:55 am 09:55 Sunny 60 15.6 42 5.5 51 51 SSW 18 30 29.41 996 10 16.09344 0 0
10:15 am 10:15 Sunny 62 16.5 41 5.1 47 47 SSW 20 31 29.41 996 10 16.09344 0 0
10:35 am 10:35 Sunny 63 17.2 38 3.2 39 39 SW 17 28 29.41 996 10 16.09344 0 0
10:55 am 10:55 Sunny 64 17.7 36 2 35 35 SW 16 26 29.41 996 10 16.09344 0 0
11:15 am 11:15 Sunny 65 18.2 34 1.2 32 32 SW 15 24 29.38 995 10 16.09344 0 0
11:35 am 11:35 Sunny 65 18.4 33 0.7 31 31 WSW 13 20 29.38 995 10 16.09344 0 0
11:55 am 11:55 Sunny 66 18.9 33 0.4 29 29 SW 14 22 29.41 996 10 16.09344 0 0
12:15 pm 12:15 Sunny 67 19.6 33 0.8 29 29 SW 13 20 29.41 996 10 16.09344 0 0
12:35 pm 12:35 Sunny 70 21 34 1.2 27 27 SW 12 19 29.41 996 10 16.09344 0 0
12:55 pm 12:55 Sunny 71 21.4 34 1.3 26 26 SW 13 20 29.41 996 10 16.09344 0 0
1:15 pm 13:15 Sunny 72 22.2 35 1.9 26 26 W 12 19 29.38 995 10 16.09344 0 0
1:35 pm 13:35 Sunny 72 22.3 36 2.4 27 27 W 6 9 29.38 995 10 16.09344 0 0
1:55 pm 13:55 Sunny 74 23.5 37 3 26 26 W 10 17 29.38 995 10 16.09344 0 0
2:15 pm 14:15 Sunny 76 24.2 38 3.2 26 26 WSW 10 17 29.38 995 10 16.09344 0 0
2:35 pm 14:35 Sunny 76 24.5 39 3.9 26 26 NW 9 15 29.38 995 10 16.09344 0 0
2:55 pm 14:55 Sunny 76 24.7 39 4.1 26 26 WNW 6 9 29.38 995 10 16.09344 0 0
3:15 pm 15:15 Sunny 76 24.6 40 4.3 27 27 N 6 9 29.38 995 10 16.09344 0 0
3:35 pm 15:35 Sunny 76 24.4 40 4.6 28 28 NNW 10 17 29.38 995 10 16.09344 0 0
3:55 pm 15:55 Sunny 76 24.4 40 4.6 28 28 NW 9 15 29.41 996 10 16.09344 0 0
4:15 pm 16:15 Sunny 76 24.3 40 4.6 28 28 NNW 10 17 29.41 996 10 16.09344 0 0
4:35 pm 16:35 Sunny 75 23.8 40 4.5 29 29 NNW 12 19 29.41 996 10 16.09344 0 0
4:55 pm 16:55 Sunny 74 23.2 41 5 31 31 N 14 22 29.41 996 10 16.09344 0 0
5:15 pm 17:15 Sunny 73 22.6 41 5 32 32 N 13 20 29.41 996 10 16.09344 0 0
5:35 pm 17:35 Sunny 72 22 41 5.1 33 33 N 15 24 29.47 998 10 16.09344 0 0
5:55 pm 17:55 Sunny 70 21.1 41 5.2 36 36 N 13 20 29.47 998 10 16.09344 0 0
6:15 pm 18:15 Sunny 68 20 40 4.6 36 36 N 14 22 29.47 998 10 16.09344 0 0
6:35 pm 18:35 Sunny 66 18.9 40 4.7 39 39 N 10 17 29.53 1000 10 16.09344 0 0
6:55 pm 18:55 Clear 65 18.1 40 4.5 41 41 N 13 20 29.53 1000 10 16.09344 0 0
7:15 pm 19:15 Partly Cloudy 63 17.3 40 4.7 44 44 N 12 19 29.56 1001 10 16.09344 0 0
7:35 pm 19:35 Partly Cloudy 63 17.1 41 5 45 45 N 14 22 29.56 1001 10 16.09344 0 0
7:55 pm 19:55 Cloudy 63 17.1 40 4.6 44 44 N 14 22 29.56 1001 10 16.09344 0 0
8:15 pm 20:15 Cloudy with Light Rain 58 14.3 45 7 62 62 N 12 19 29.62 1003 10 16.09344 0 0
8:35 pm 20:35 Cloudy 56 13.6 45 7.3 66 66 N 10 17 29.65 1004 10 16.09344 0.01 0.254
8:55 pm 20:55 Cloudy with Light Rain 56 13.6 45 7 65 65 N 10 17 29.68 1005 10 16.09344 0.01 0.254
9:15 pm 21:15 Cloudy with Light Rain 55 12.5 46 8 74 74 N 8 13 29.71 1006 10 16.09344 0 0
9:35 pm 21:35 Cloudy with Light Rain 54 12.3 46 7.7 74 74 N 8 13 29.74 1007 10 16.09344 0.01 0.254
9:55 pm 21:55 Cloudy 55 12.6 45 7.2 70 70 N 8 13 29.74 1007 10 16.09344 0.01 0.254
10:15 pm 22:15 Cloudy 55 12.6 44 6.9 68 68 N 7 11 29.74 1007 10 16.09344 0 0
10:35 pm 22:35 Cloudy 55 12.7 43 6.3 65 65 N 5 7 29.74 1007 10 16.09344 0 0
10:55 pm 22:55 Cloudy 54 12 45 7.1 72 72 NNE 5 7 29.74 1007 10 16.09344 0 0
11:15 pm 23:15 Cloudy 52 11.2 46 7.6 79 79 Calm 29.74 1007 10 16.09344 0 0
11:35 pm 23:35 Cloudy 52 10.9 46 8 82 82 ENE 8 13 29.74 1007 10 16.09344 0 0
11:55 pm 23:55 Cloudy 52 11 46 7.8 81 81 ENE 5 7 29.74 1007 10 16.09344 0 0

Powered by AerisWeather